This demonstration page uses our WeatherBlox Daily Observations layout. Learn more.

Left ArrowRight Arrow

Hourly Observations for May 31, 2015

Temp ( °F °C ) Dew Point ( °F °C ) Humidity (%) Winds ( mph kmh ) Pressure ( in mb ) Visibility ( mi km ) Precip ( " mm )
12:59 am 00:59 Mostly Clear 78 25.6 65 18.3 64 64 S 5 7 30.14 1021 10 16 0.00 0.00
1:59 am 01:59 Mostly Clear 77 25 65 18.3 66 66 S 6 9 30.13 1020 10 16 0.00 0.00
2:59 am 02:59 Mostly Clear 77 25 66 18.9 69 69 SSW 8 13 30.12 1020 10 16 0.00 0.00
3:59 am 03:59 Partly Cloudy 76 24.4 66 18.9 72 72 S 6 9 30.12 1020 10 16 0.00 0.00
4:59 am 04:59 Partly Cloudy 75 23.9 67 19.4 76 76 SSW 8 13 30.12 1020 10 16 0.00 0.00
5:59 am 05:59 Partly Cloudy 75 23.9 67 19.4 76 76 S 6 9 30.13 1020 10 16 0.00 0.00
6:59 am 06:59 Partly Cloudy 75 23.9 67 19.4 76 76 SSW 7 11 30.14 1021 10 16 0.00 0.00
7:59 am 07:59 Partly Cloudy 78 25.6 68 20 71 71 SSW 7 11 30.14 1021 10 16 0.00 0.00
8:59 am 08:59 Mostly Cloudy 81 27.2 67 19.4 62 62 WSW 6 9 30.14 1021 10 16 0.00 0.00
9:59 am 09:59 Partly Cloudy 83 28.3 66 18.9 57 57 SSW 8 13 30.13 1020 10 16 0.00 0.00
10:59 am 10:59 Partly Cloudy 85 29.4 65 18.3 51 51 VRB 7 11 30.13 1020 10 16 0.00 0.00
11:59 am 11:59 Partly Cloudy 87 30.6 65 18.3 48 48 SW 7 11 30.12 1020 10 16 0.00 0.00
12:59 pm 12:59 Partly Cloudy 90 32.2 66 18.9 45 45 VRB 5 7 30.11 1020 10 16 0.00 0.00
1:59 pm 13:59 Partly Cloudy 89 31.7 67 19.4 48 48 E 10 17 30.09 1019 10 16 0.00 0.00
2:59 pm 14:59 Mostly Cloudy 89 31.7 66 18.9 47 47 ENE 9 15 30.07 1018 10 16 0.00 0.00
3:59 pm 15:59 Mostly Cloudy 91 32.8 68 20 47 47 ENE 9 15 30.04 1017 10 16 0.00 0.00
4:59 pm 16:59 Mostly Cloudy 90 32.2 67 19.4 47 47 SSE 10 17 30.03 1017 10 16 0.00 0.00
5:59 pm 17:59 Mostly Cloudy 88 31.1 67 19.4 50 50 SSE 14 22 30.02 1017 10 16 0.00 0.00
6:59 pm 18:59 Mostly Cloudy 87 30.6 67 19.4 51 51 SE 13 20 30.02 1017 10 16 0.00 0.00
8:59 pm 20:59 Mostly Cloudy 83 28.3 66 18.9 57 57 SSE 9 15 30.04 1017 10 16 0.00 0.00
9:59 pm 21:59 Mostly Cloudy 83 28.3 66 18.9 57 57 S 7 11 30.07 1018 10 16 0.00 0.00
10:59 pm 22:59 Clear 82 27.8 66 18.9 58 58 SSE 5 7 30.09 1019 10 16 0.00 0.00
11:59 pm 23:59 Partly Cloudy 80 26.7 67 19.4 64 64 S 7 11 30.08 1019 10 16 0.00 0.00

Powered by AerisWeather